{"data":{"norad_id":62746,"intl_designator":"2025-014M","name":"STARLINK-32780","alt_names":[],"object_type":"PAYLOAD","status":"ACTIVE","operator":null,"country":"US","launch_date":"2025-01-21","launch_site_code":"AFETR","launch_vehicle":null,"mission":null,"orbit_class":"UNKNOWN","rcs_meters":null,"size_class":null,"mass_kg":null,"dimensions":null,"purposes":["comms"],"wikipedia_slug":null,"has_3d_model":false,"image_url":null,"decayed_at":null,"tle_current":{"epoch":"2026-09-21T00:03:17.819712Z","epoch_age_seconds":127954,"freshness":"FRESH","line1":"1 62746U 25014M   26264.00228958  .00010995  00000+0  40840-3 0  9993","line2":"2 62746  43.0034 131.7340 0001508 275.5943  84.4737 15.27584869 93122","mean_motion":15.27584869,"eccentricity":0.0001508,"inclination_deg":43.0034,"raan_deg":131.734,"arg_perigee_deg":275.5943,"mean_anomaly_deg":84.4737,"bstar":0.0004084,"rev_number":9312,"period_min":94.266448249299,"perigee_km":481.99985187607,"apogee_km":484.06918120546,"semimajor_km":6861.1715165408,"source":"CELESTRAK","updated_at":"2026-09-22T09:00:49.658169Z"}}}